Plattsburgh, NY

2:34 PM EST on February 19, 2017 (GMT -0500)
Plattsburgh International

Weather History for KPBG - March, 2014

Change the Weather History Date:

Saturday, March 1, 2014

  Actual Average Record
Temperature  
Mean Temperature 15 °F 26 °F  
Max Temperature 30 °F 35 °F 57 °F (1985)
Min Temperature -1 °F 16 °F -12 °F (1980)
Degree Days  
Heating Degree Days 50 39  
Month to date heating degree days 50 39  
Since 1 July heating degree days 5893 5651  
Cooling Degree Days 0 0  
Month to date cooling degree days 0  
Year to date cooling degree days 0  
Moisture  
Dew Point 2 °F    
Average Humidity 54    
Maximum Humidity 76    
Minimum Humidity 32    
Precipitation  
Precipitation T in - 0.83 in (1987)
Month to date precipitation T  
Year to date precipitation 1.26  
Sea Level Pressure  
Sea Level Pressure 30.17 in    
Wind  
Wind Speed 6 mph (South)    
Max Wind Speed 18 mph    
Max Gust Speed 23 mph    
Visibility 10 miles    
Events      
T = Trace of Precipitation, MM = Missing Value Source: NWS Daily Summary

Daily Weather History Graph

Daily Weather History Graph

Search for Another Location

Airport or City:

Trip Planner

Search our weather history database for the weather conditions in past years. The results will help you decide how hot, cold, wet, or windy it might be!

Date:

Astronomy

Mar. 01, 2014 Rise Set
Actual Time 6:31 AM EST 5:41 PM EST
Civil Twilight 6:02 AM EST 6:10 PM EST
Nautical Twilight 5:28 AM EST 6:44 PM EST
Astronomical Twilight 4:54 AM EST 7:18 PM EST
Moon 6:21 AM EST (3/1) 6:29 PM EST (3/1)
Length of Visible Light 12h 08m
Length of Day
11h 10m
New Moon, 0% of the Moon is Illuminated
Mar 1
New Moon
Mar 8
First Quarter
Mar 16
Full
Mar 23
Last Quarter
Mar 30
New

Hourly Weather History & Observations

Time (EST) Temp. Windchill Dew Point Humidity Pressure Visibility Wind Dir Wind Speed Gust Speed Precip Events Conditions
12:53 AM -0.9 °F - -8.0 °F 72% 30.40 in 10.0 mi Calm Calm - N/A   Clear
1:53 AM -0.0 °F - -7.1 °F 72% 30.38 in 10.0 mi Calm Calm - N/A   Partly Cloudy
2:53 AM 1.9 °F - -8.0 °F 63% 30.36 in 10.0 mi Calm Calm - N/A   Mostly Cloudy
3:53 AM 1.0 °F - -7.1 °F 69% 30.35 in 10.0 mi Calm Calm - N/A   Clear
4:53 AM 1.9 °F - -6.0 °F 69% 30.33 in 10.0 mi Calm Calm - N/A   Mostly Cloudy
5:53 AM 3.9 °F - -6.0 °F 64% 30.32 in 10.0 mi Calm Calm - N/A   Mostly Cloudy
6:53 AM 5.0 °F - -2.9 °F 70% 30.30 in 10.0 mi Calm Calm - N/A   Mostly Cloudy
7:53 AM 7.0 °F - -4.0 °F 61% 30.29 in 10.0 mi Calm Calm - N/A   Overcast
8:53 AM 10.9 °F - -4.0 °F 51% 30.27 in 10.0 mi Calm Calm - N/A   Overcast
9:53 AM 15.1 °F 7.7 °F -2.0 °F 47% 30.24 in 10.0 mi Variable 4.6 mph - N/A   Overcast
10:53 AM 19.0 °F 5.6 °F -0.0 °F 43% 30.21 in 10.0 mi SSE 13.8 mph - 0.00 in   Mostly Cloudy
11:53 AM 21.0 °F 7.1 °F 1.9 °F 44% 30.17 in 10.0 mi SSE 16.1 mph - N/A   Overcast
12:53 PM 24.1 °F 11.5 °F 3.9 °F 42% 30.11 in 10.0 mi SSE 15.0 mph - N/A   Overcast
1:53 PM 27.0 °F 18.0 °F 3.9 °F 37% 30.08 in 10.0 mi SSE 9.2 mph - N/A   Overcast
2:53 PM 28.0 °F 19.3 °F 5.0 °F 38% 30.05 in 10.0 mi SSE 9.2 mph - N/A   Overcast
3:53 PM 30.0 °F 20.0 °F 5.0 °F 35% 30.04 in 10.0 mi South 12.7 mph 20.7 mph N/A   Overcast
4:53 PM 28.9 °F 17.3 °F 6.1 °F 38% 30.03 in 10.0 mi South 16.1 mph - N/A   Overcast
5:53 PM 28.9 °F 19.2 °F 7.0 °F 40% 30.02 in 10.0 mi South 11.5 mph - N/A   Overcast
6:53 PM 28.9 °F 19.8 °F 8.1 °F 41% 30.02 in 10.0 mi South 10.4 mph - N/A   Overcast
7:53 PM 30.0 °F 23.2 °F 9.0 °F 41% 30.02 in 10.0 mi South 6.9 mph - N/A   Overcast
8:53 PM 28.9 °F 21.1 °F 10.0 °F 45% 30.01 in 10.0 mi SSE 8.1 mph - N/A   Overcast
9:53 PM 28.9 °F 23.9 °F 10.9 °F 47% 30.01 in 10.0 mi South 4.6 mph - N/A   Overcast
10:53 PM 28.0 °F 24.2 °F 12.0 °F 51% 30.01 in 10.0 mi NW 3.5 mph - N/A   Overcast
11:53 PM 30.0 °F 23.2 °F 18.0 °F 61% 30.01 in 10.0 mi WNW 6.9 mph - N/A   Overcast